AZU2340 SBTC-SBJP

Flight info

Callsign AZU2340
Flight time 1h 29m
Altitude 37000
Route DAKEN UZ42 GERSO UZ14 MEXAR
Aircraft E195/M-SDE3GILORVW/S

Departure

Time 2026-04-17 21:24
Airport Una-Comandatuba Airport (SBTC)

Arrival

Time 2026-04-17 22:53
Airport Presidente Castro Pinto International Airport (SBJP)
Time Latitude Longitude Altitude Speed Heading
2026-04-17 21:02 -15.35731 -38.99616 20 ft 0 kts 130°
2026-04-17 21:14 -15.35731 -38.99617 20 ft 1 kts 130°
2026-04-17 21:14 -15.35721 -38.99628 20 ft 2 kts 130°
2026-04-17 21:14 -15.35711 -38.99639 20 ft 2 kts 142°
2026-04-17 21:14 -15.35698 -38.99647 21 ft 2 kts 163°
2026-04-17 21:15 -15.35687 -38.99649 21 ft 1 kts 178°
2026-04-17 21:15 -15.35686 -38.99649 21 ft 0 kts 178°
2026-04-17 21:16 -15.35688 -38.99649 21 ft 1 kts 178°
2026-04-17 21:16 -15.35705 -38.99659 20 ft 4 kts 220°
2026-04-17 21:17 -15.35718 -38.99693 20 ft 5 kts 260°
2026-04-17 21:17 -15.35724 -38.99738 20 ft 6 kts 263°
2026-04-17 21:17 -15.35725 -38.99748 20 ft 0 kts 264°
2026-04-17 21:17 -15.35725 -38.99750 20 ft 0 kts 264°
2026-04-17 21:18 -15.35726 -38.99759 20 ft 1 kts 264°
2026-04-17 21:18 -15.35728 -38.99777 20 ft 3 kts 264°
2026-04-17 21:18 -15.35730 -38.99802 20 ft 4 kts 265°
2026-04-17 21:18 -15.35720 -38.99831 20 ft 4 kts 322°
2026-04-17 21:19 -15.35683 -38.99843 20 ft 5 kts 348°
2026-04-17 21:19 -15.35639 -38.99851 20 ft 6 kts 353°
2026-04-17 21:19 -15.35590 -38.99856 21 ft 7 kts 354°
2026-04-17 21:19 -15.35534 -38.99862 21 ft 8 kts 354°
2026-04-17 21:20 -15.35473 -38.99869 21 ft 9 kts 354°
2026-04-17 21:20 -15.35405 -38.99875 21 ft 10 kts 355°
2026-04-17 21:20 -15.35331 -38.99883 21 ft 11 kts 353°
2026-04-17 21:20 -15.35251 -38.99892 21 ft 11 kts 354°
2026-04-17 21:21 -15.35165 -38.99902 21 ft 12 kts 354°
2026-04-17 21:21 -15.35072 -38.99912 21 ft 13 kts 354°
2026-04-17 21:21 -15.34973 -38.99922 21 ft 14 kts 353°
2026-04-17 21:21 -15.34868 -38.99934 22 ft 15 kts 354°
2026-04-17 21:22 -15.34755 -38.99947 22 ft 16 kts 354°
2026-04-17 21:22 -15.34663 -38.99957 22 ft 10 kts 354°
2026-04-17 21:22 -15.34627 -38.99971 22 ft 4 kts 320°
2026-04-17 21:22 -15.34606 -38.99975 22 ft 2 kts 75°
2026-04-17 21:23 -15.34618 -38.99966 22 ft 0 kts 166°
2026-04-17 21:23 -15.34802 -38.99940 22 ft 60 kts 173°
2026-04-17 21:23 -15.35434 -38.99868 21 ft 119 kts 172°
2026-04-17 21:24 -15.36418 -38.99755 106 ft 155 kts 171°
2026-04-17 21:24 -15.37424 -38.99604 708 ft 145 kts 167°
2026-04-17 21:24 -15.38449 -38.99397 1129 ft 152 kts 174°
2026-04-17 21:24 -15.39524 -38.99402 1667 ft 160 kts 178°
2026-04-17 21:25 -15.40673 -38.99473 2157 ft 171 kts 178°
2026-04-17 21:25 -15.41751 -38.99055 2778 ft 167 kts 131°
2026-04-17 21:25 -15.42165 -38.97977 3341 ft 174 kts 90°
2026-04-17 21:25 -15.41677 -38.96747 3557 ft 206 kts 46°
2026-04-17 21:26 -15.40304 -38.96135 3882 ft 231 kts
2026-04-17 21:26 -15.38634 -38.96310 4318 ft 248 kts 356°
2026-04-17 21:26 -15.36864 -38.96302 4826 ft 264 kts
2026-04-17 21:26 -15.34967 -38.96105 5264 ft 284 kts
2026-04-17 21:27 -15.32969 -38.95787 6063 ft 290 kts
2026-04-17 21:27 -15.30998 -38.95423 6944 ft 290 kts
2026-04-17 21:27 -15.29016 -38.95033 7779 ft 291 kts
2026-04-17 21:27 -15.27020 -38.94628 8554 ft 294 kts
2026-04-17 21:28 -15.25010 -38.94216 9298 ft 296 kts
2026-04-17 21:28 -15.22992 -38.93800 10015 ft 299 kts
2026-04-17 21:28 -15.20950 -38.93378 10677 ft 303 kts
2026-04-17 21:28 -15.18840 -38.92942 11235 ft 311 kts
2026-04-17 21:29 -15.16718 -38.92395 11730 ft 322 kts 21°
2026-04-17 21:29 -15.14683 -38.91336 12241 ft 331 kts 26°
2026-04-17 21:29 -15.12617 -38.90219 12853 ft 335 kts 26°
2026-04-17 21:29 -15.10546 -38.89108 13519 ft 337 kts 26°
2026-04-17 21:30 -15.08460 -38.87990 14164 ft 339 kts 25°
2026-04-17 21:30 -15.06356 -38.86865 14774 ft 342 kts 26°
2026-04-17 21:30 -15.04232 -38.85730 15371 ft 345 kts 25°
2026-04-17 21:30 -15.02091 -38.84586 15944 ft 348 kts 25°
2026-04-17 21:31 -14.99925 -38.83430 16510 ft 351 kts 25°
2026-04-17 21:31 -14.97743 -38.82264 17057 ft 354 kts 25°
2026-04-17 21:31 -14.95542 -38.81089 17623 ft 357 kts 24°
2026-04-17 21:31 -14.93329 -38.79908 18150 ft 360 kts 25°
2026-04-17 21:32 -14.91085 -38.78711 18669 ft 364 kts 25°
2026-04-17 21:32 -14.88827 -38.77507 19177 ft 367 kts 25°
2026-04-17 21:32 -14.86524 -38.76278 19685 ft 371 kts 25°
2026-04-17 21:32 -14.84208 -38.75043 20191 ft 374 kts 25°
2026-04-17 21:33 -14.81873 -38.73798 20674 ft 378 kts 25°
2026-04-17 21:33 -14.79536 -38.72552 21140 ft 381 kts 25°
2026-04-17 21:33 -14.77156 -38.71285 21627 ft 384 kts 25°
2026-04-17 21:33 -14.74765 -38.70011 22097 ft 387 kts 25°
2026-04-17 21:34 -14.72358 -38.68729 22567 ft 389 kts 25°
2026-04-17 21:34 -14.69948 -38.67446 23030 ft 391 kts 25°
2026-04-17 21:34 -14.65101 -38.64866 23984 ft 394 kts 25°
2026-04-17 21:35 -14.62661 -38.63568 24437 ft 396 kts 25°
2026-04-17 21:35 -14.60198 -38.62258 24855 ft 399 kts 26°
2026-04-17 21:35 -14.57716 -38.60938 25274 ft 401 kts 26°
2026-04-17 21:35 -14.55220 -38.59611 25684 ft 404 kts 26°
2026-04-17 21:36 -14.52710 -38.58277 26095 ft 406 kts 25°
2026-04-17 21:36 -14.50210 -38.56949 26501 ft 407 kts 25°
2026-04-17 21:36 -14.47663 -38.55596 26899 ft 409 kts 25°
2026-04-17 21:36 -14.45132 -38.54252 27276 ft 412 kts 25°
2026-04-17 21:37 -14.42565 -38.52889 27651 ft 414 kts 25°
2026-04-17 21:37 -14.39993 -38.51523 28024 ft 416 kts 25°
2026-04-17 21:37 -14.37436 -38.50167 28386 ft 417 kts 25°
2026-04-17 21:37 -14.34831 -38.48784 28761 ft 419 kts 25°
2026-04-17 21:38 -14.32235 -38.47408 29091 ft 421 kts 25°
2026-04-17 21:38 -14.29618 -38.46020 29392 ft 424 kts 26°
2026-04-17 21:38 -14.26988 -38.44626 29693 ft 427 kts 25°
2026-04-17 21:38 -14.24328 -38.43216 30008 ft 429 kts 26°
2026-04-17 21:39 -14.21635 -38.41789 30296 ft 432 kts 25°
2026-04-17 21:39 -14.18958 -38.40371 30578 ft 434 kts 25°
2026-04-17 21:39 -14.16268 -38.38947 30843 ft 437 kts 25°
2026-04-17 21:39 -14.13507 -38.37485 31109 ft 440 kts 25°
2026-04-17 21:40 -14.10811 -38.36058 31394 ft 442 kts 25°
2026-04-17 21:40 -14.08036 -38.34590 31739 ft 443 kts 25°
2026-04-17 21:40 -14.05316 -38.33151 32096 ft 442 kts 25°
2026-04-17 21:40 -14.02562 -38.31695 32490 ft 441 kts 25°
2026-04-17 21:41 -13.99853 -38.30263 32911 ft 440 kts 25°
2026-04-17 21:41 -13.97100 -38.28808 33316 ft 439 kts 25°
2026-04-17 21:41 -13.94412 -38.27387 33721 ft 438 kts 25°
2026-04-17 21:41 -13.91661 -38.25934 34124 ft 438 kts 25°
2026-04-17 21:42 -13.88951 -38.24503 34499 ft 437 kts 25°
2026-04-17 21:42 -13.86205 -38.23053 34888 ft 437 kts 25°
2026-04-17 21:42 -13.83510 -38.21631 35258 ft 436 kts 26°
2026-04-17 21:42 -13.80800 -38.20200 35600 ft 437 kts 25°
2026-04-17 21:43 -13.78073 -38.18762 35910 ft 437 kts 26°
2026-04-17 21:43 -13.75363 -38.17332 36223 ft 438 kts 26°
2026-04-17 21:43 -13.72646 -38.15900 36534 ft 438 kts 26°
2026-04-17 21:43 -13.69922 -38.14465 36829 ft 435 kts 26°
2026-04-17 21:44 -13.67249 -38.13055 36845 ft 436 kts 26°
2026-04-17 21:44 -13.61774 -38.10171 36871 ft 447 kts 26°
2026-04-17 21:45 -13.56146 -38.07208 36870 ft 459 kts 26°
2026-04-17 21:45 -13.50425 -38.04197 36863 ft 465 kts 26°
2026-04-17 21:46 -13.44656 -38.01163 36861 ft 463 kts 26°
2026-04-17 21:46 -13.38957 -37.98168 36861 ft 462 kts 26°
2026-04-17 21:47 -13.33210 -37.95148 36864 ft 462 kts 26°
2026-04-17 21:47 -13.27474 -37.92136 36861 ft 462 kts 26°
2026-04-17 21:48 -13.21745 -37.89130 36863 ft 462 kts 26°
2026-04-17 21:48 -13.15979 -37.86105 36862 ft 462 kts 26°
2026-04-17 21:49 -13.10251 -37.83102 36863 ft 461 kts 26°
2026-04-17 21:49 -13.04530 -37.80105 36865 ft 459 kts 26°
2026-04-17 21:50 -12.98835 -37.77122 36867 ft 459 kts 26°
2026-04-17 21:50 -12.93068 -37.74103 36870 ft 460 kts 26°
2026-04-17 21:51 -12.87386 -37.71131 36871 ft 459 kts 26°
2026-04-17 21:51 -12.81680 -37.68147 36871 ft 458 kts 26°
2026-04-17 21:52 -12.75986 -37.65171 36873 ft 458 kts 26°
2026-04-17 21:52 -12.70269 -37.62185 36873 ft 458 kts 26°
2026-04-17 21:53 -12.64574 -37.59212 36870 ft 458 kts 26°
2026-04-17 21:53 -12.58863 -37.56231 36868 ft 458 kts 26°
2026-04-17 21:54 -12.53203 -37.53280 36868 ft 456 kts 26°
2026-04-17 21:54 -12.47546 -37.50330 36870 ft 454 kts 26°
2026-04-17 21:55 -12.41887 -37.47381 36867 ft 454 kts 26°
2026-04-17 21:55 -12.36262 -37.44452 36864 ft 454 kts 26°
2026-04-17 21:56 -12.30597 -37.41503 36864 ft 454 kts 26°
2026-04-17 21:56 -12.24918 -37.38549 36863 ft 454 kts 26°
2026-04-17 21:57 -12.19293 -37.35623 36864 ft 453 kts 26°
2026-04-17 21:57 -12.13633 -37.32681 36864 ft 453 kts 26°
2026-04-17 21:58 -12.08001 -37.29755 36861 ft 452 kts 26°
2026-04-17 21:58 -12.02419 -37.26856 36862 ft 449 kts 26°
2026-04-17 21:59 -11.96806 -37.23943 36861 ft 449 kts 26°
2026-04-17 21:59 -11.91251 -37.21061 36863 ft 448 kts 26°
2026-04-17 22:00 -11.85644 -37.18153 36864 ft 448 kts 26°
2026-04-17 22:00 -11.80058 -37.15258 36864 ft 448 kts 26°
2026-04-17 22:01 -11.74496 -37.12376 36865 ft 447 kts 26°
2026-04-17 22:01 -11.68923 -37.09490 36864 ft 447 kts 27°
2026-04-17 22:02 -11.63359 -37.06611 36865 ft 447 kts 27°
2026-04-17 22:02 -11.57819 -37.03745 36862 ft 446 kts 27°
2026-04-17 22:03 -11.52203 -37.00844 36860 ft 451 kts 27°
2026-04-17 22:03 -11.46614 -36.97960 36861 ft 451 kts 27°
2026-04-17 22:04 -11.40992 -36.95059 36863 ft 452 kts 27°
2026-04-17 22:04 -11.35373 -36.92160 36863 ft 455 kts 27°
2026-04-17 22:05 -11.29712 -36.89242 36862 ft 456 kts 27°
2026-04-17 22:05 -11.24030 -36.86314 36862 ft 456 kts 27°
2026-04-17 22:06 -11.18343 -36.83385 36861 ft 456 kts 27°
2026-04-17 22:06 -11.12683 -36.80471 36864 ft 457 kts 27°
2026-04-17 22:07 -11.06949 -36.77521 36863 ft 458 kts 27°
2026-04-17 22:07 -11.01237 -36.74583 36862 ft 457 kts 27°
2026-04-17 22:08 -10.95563 -36.71666 36861 ft 457 kts 27°
2026-04-17 22:08 -10.89886 -36.68749 36864 ft 457 kts 27°
2026-04-17 22:09 -10.84195 -36.65823 36863 ft 457 kts 28°
2026-04-17 22:09 -10.78894 -36.62271 36864 ft 456 kts 36°
2026-04-17 22:10 -10.73686 -36.58559 36860 ft 455 kts 35°
2026-04-17 22:10 -10.68508 -36.54874 36859 ft 452 kts 35°
2026-04-17 22:11 -10.63322 -36.51183 36852 ft 453 kts 36°
2026-04-17 22:11 -10.58163 -36.47514 36850 ft 454 kts 36°
2026-04-17 22:12 -10.52960 -36.43814 36850 ft 455 kts 36°
2026-04-17 22:12 -10.47771 -36.40128 36854 ft 453 kts 36°
2026-04-17 22:13 -10.42578 -36.36438 36853 ft 452 kts 35°
2026-04-17 22:13 -10.37398 -36.32761 36856 ft 452 kts 35°
2026-04-17 22:14 -10.32223 -36.29088 36856 ft 451 kts 35°
2026-04-17 22:14 -10.27061 -36.25425 36857 ft 452 kts 35°
2026-04-17 22:15 -10.21882 -36.21752 36864 ft 453 kts 35°
2026-04-17 22:15 -10.16679 -36.18063 36864 ft 450 kts 35°
2026-04-17 22:16 -10.11546 -36.14426 36864 ft 450 kts 35°
2026-04-17 22:16 -10.06360 -36.10753 36869 ft 451 kts 35°
2026-04-17 22:17 -10.01196 -36.07097 36867 ft 449 kts 35°
2026-04-17 22:17 -9.96070 -36.03469 36865 ft 448 kts 35°
2026-04-17 22:18 -9.90932 -35.99833 36875 ft 450 kts 35°
2026-04-17 22:18 -9.85772 -35.96184 36872 ft 448 kts 34°
2026-04-17 22:19 -9.80636 -35.92554 36881 ft 449 kts 34°
2026-04-17 22:19 -9.75492 -35.88918 36881 ft 447 kts 34°
2026-04-17 22:20 -9.70375 -35.85304 36881 ft 446 kts 34°
2026-04-17 22:20 -9.65281 -35.81706 36883 ft 445 kts 34°
2026-04-17 22:21 -9.60179 -35.78105 36880 ft 446 kts 34°
2026-04-17 22:21 -9.55078 -35.74505 36880 ft 445 kts 33°
2026-04-17 22:22 -9.49941 -35.70883 36884 ft 448 kts 33°
2026-04-17 22:22 -9.44820 -35.67273 36879 ft 448 kts 33°
2026-04-17 22:23 -9.39664 -35.63638 36880 ft 447 kts 33°
2026-04-17 22:23 -9.34564 -35.60045 36880 ft 448 kts 33°
2026-04-17 22:24 -9.29431 -35.56430 36877 ft 449 kts 32°
2026-04-17 22:24 -9.24255 -35.52786 36867 ft 450 kts 33°
2026-04-17 22:25 -9.19116 -35.49169 36871 ft 451 kts 33°
2026-04-17 22:25 -9.13971 -35.45549 36850 ft 438 kts 32°
2026-04-17 22:26 -9.09015 -35.42065 36864 ft 433 kts 32°
2026-04-17 22:26 -9.03977 -35.38524 36306 ft 439 kts 32°
2026-04-17 22:26 -9.01466 -35.36758 35842 ft 438 kts 32°
2026-04-17 22:27 -8.98988 -35.35017 35365 ft 437 kts 32°
2026-04-17 22:27 -8.96471 -35.33248 34875 ft 437 kts 31°
2026-04-17 22:27 -8.93978 -35.31498 34398 ft 439 kts 31°
2026-04-17 22:27 -8.91425 -35.29751 33909 ft 438 kts 27°
2026-04-17 22:28 -8.88717 -35.28409 33448 ft 436 kts 17°
2026-04-17 22:28 -8.85810 -35.27519 32907 ft 433 kts
2026-04-17 22:28 -8.82825 -35.27141 32469 ft 428 kts 359°
2026-04-17 22:28 -8.79835 -35.26980 31993 ft 430 kts
2026-04-17 22:29 -8.76812 -35.26780 31511 ft 434 kts
2026-04-17 22:29 -8.73786 -35.26568 31024 ft 436 kts
2026-04-17 22:29 -8.70732 -35.26350 30537 ft 437 kts
2026-04-17 22:29 -8.67703 -35.26133 30051 ft 436 kts
2026-04-17 22:30 -8.64681 -35.25916 29572 ft 432 kts
2026-04-17 22:30 -8.61678 -35.25701 29091 ft 429 kts
2026-04-17 22:30 -8.58690 -35.25486 28618 ft 427 kts
2026-04-17 22:30 -8.55734 -35.25275 28155 ft 424 kts
2026-04-17 22:31 -8.52781 -35.25063 27683 ft 423 kts
2026-04-17 22:31 -8.49872 -35.24855 27223 ft 419 kts
2026-04-17 22:31 -8.46955 -35.24646 26756 ft 416 kts
2026-04-17 22:31 -8.44056 -35.24439 26295 ft 414 kts
2026-04-17 22:32 -8.41179 -35.24233 25834 ft 411 kts
2026-04-17 22:32 -8.38363 -35.24031 25384 ft 409 kts
2026-04-17 22:32 -8.35493 -35.23826 24924 ft 405 kts
2026-04-17 22:32 -8.32699 -35.23625 24477 ft 402 kts
2026-04-17 22:33 -8.29926 -35.23427 24037 ft 399 kts
2026-04-17 22:33 -8.27160 -35.23229 23591 ft 397 kts
2026-04-17 22:33 -8.24355 -35.23029 23150 ft 395 kts
2026-04-17 22:33 -8.21644 -35.22835 22717 ft 393 kts
2026-04-17 22:34 -8.18899 -35.22638 22281 ft 391 kts
2026-04-17 22:34 -8.16185 -35.22444 21850 ft 388 kts
2026-04-17 22:34 -8.13491 -35.22252 21419 ft 387 kts
2026-04-17 22:34 -8.10799 -35.22059 20988 ft 385 kts
2026-04-17 22:35 -8.08131 -35.21869 20560 ft 381 kts
2026-04-17 22:35 -8.05498 -35.21680 20147 ft 380 kts
2026-04-17 22:35 -8.02833 -35.21490 19715 ft 377 kts
2026-04-17 22:35 -8.00246 -35.21305 19299 ft 375 kts
2026-04-17 22:36 -7.97641 -35.21119 18891 ft 374 kts
2026-04-17 22:36 -7.95004 -35.20931 18462 ft 372 kts
2026-04-17 22:36 -7.92424 -35.20746 18052 ft 369 kts
2026-04-17 22:36 -7.89824 -35.20560 17641 ft 367 kts
2026-04-17 22:37 -7.87253 -35.20377 17230 ft 365 kts
2026-04-17 22:37 -7.84723 -35.20196 16826 ft 364 kts
2026-04-17 22:37 -7.82172 -35.20014 16418 ft 362 kts
2026-04-17 22:37 -7.79652 -35.19835 16017 ft 358 kts
2026-04-17 22:38 -7.77161 -35.19657 15620 ft 356 kts
2026-04-17 22:38 -7.74690 -35.19480 15224 ft 354 kts
2026-04-17 22:38 -7.72240 -35.19305 14836 ft 351 kts
2026-04-17 22:38 -7.69780 -35.19130 14442 ft 349 kts
2026-04-17 22:39 -7.67369 -35.18958 14056 ft 346 kts
2026-04-17 22:39 -7.64950 -35.18785 13664 ft 345 kts
2026-04-17 22:39 -7.60163 -35.18444 12902 ft 340 kts
2026-04-17 22:40 -7.57787 -35.18275 12517 ft 339 kts
2026-04-17 22:40 -7.55429 -35.18106 12139 ft 338 kts
2026-04-17 22:40 -7.53072 -35.17939 11764 ft 336 kts
2026-04-17 22:40 -7.50768 -35.17774 11394 ft 332 kts
2026-04-17 22:41 -7.48461 -35.17610 11016 ft 324 kts
2026-04-17 22:41 -7.46213 -35.17450 10657 ft 316 kts
2026-04-17 22:41 -7.44049 -35.17296 10309 ft 308 kts
2026-04-17 22:41 -7.41922 -35.17144 9970 ft 301 kts
2026-04-17 22:42 -7.39859 -35.16998 9638 ft 294 kts
2026-04-17 22:42 -7.37821 -35.16852 9317 ft 290 kts
2026-04-17 22:42 -7.35791 -35.16707 9079 ft 288 kts
2026-04-17 22:42 -7.33770 -35.16563 8797 ft 291 kts
2026-04-17 22:43 -7.31739 -35.16419 8480 ft 291 kts
2026-04-17 22:43 -7.29711 -35.16274 8152 ft 289 kts
2026-04-17 22:43 -7.27733 -35.16134 7824 ft 282 kts
2026-04-17 22:43 -7.25767 -35.15994 7519 ft 276 kts
2026-04-17 22:44 -7.23892 -35.15860 7170 ft 263 kts
2026-04-17 22:44 -7.22106 -35.15734 6896 ft 249 kts
2026-04-17 22:44 -7.20418 -35.15613 6633 ft 240 kts
2026-04-17 22:44 -7.18721 -35.15492 6382 ft 240 kts
2026-04-17 22:45 -7.17046 -35.15373 6207 ft 237 kts
2026-04-17 22:45 -7.15448 -35.15260 5898 ft 226 kts
2026-04-17 22:45 -7.13895 -35.15149 5615 ft 216 kts
2026-04-17 22:45 -7.12420 -35.15045 5364 ft 206 kts
2026-04-17 22:46 -7.11014 -35.14945 5210 ft 197 kts
2026-04-17 22:46 -7.09659 -35.14811 4945 ft 191 kts 21°
2026-04-17 22:46 -7.08603 -35.14104 4789 ft 175 kts 47°
2026-04-17 22:46 -7.07737 -35.13260 4622 ft 173 kts 48°
2026-04-17 22:47 -7.06865 -35.12400 4446 ft 173 kts 49°
2026-04-17 22:47 -7.06007 -35.11547 4262 ft 173 kts 49°
2026-04-17 22:47 -7.05153 -35.10692 4067 ft 173 kts 49°
2026-04-17 22:47 -7.04303 -35.09840 3877 ft 172 kts 49°
2026-04-17 22:48 -7.03447 -35.08980 3684 ft 171 kts 49°
2026-04-17 22:48 -7.02908 -35.07978 3495 ft 162 kts 91°
2026-04-17 22:48 -7.03248 -35.06946 3315 ft 161 kts 129°
2026-04-17 22:48 -7.03973 -35.06105 3146 ft 153 kts 131°
2026-04-17 22:49 -7.04685 -35.05327 2873 ft 150 kts 133°
2026-04-17 22:49 -7.05382 -35.04588 2622 ft 141 kts 134°
2026-04-17 22:49 -7.06039 -35.03906 2380 ft 131 kts 134°
2026-04-17 22:49 -7.06675 -35.03254 2207 ft 128 kts 134°
2026-04-17 22:50 -7.07299 -35.02620 2064 ft 128 kts 134°
2026-04-17 22:50 -7.07931 -35.01982 1918 ft 128 kts 134°
2026-04-17 22:50 -7.08559 -35.01350 1754 ft 127 kts 134°
2026-04-17 22:50 -7.09186 -35.00722 1613 ft 128 kts 134°
2026-04-17 22:51 -7.09814 -35.00095 1418 ft 125 kts 134°
2026-04-17 22:51 -7.10445 -34.99465 1245 ft 128 kts 134°
2026-04-17 22:51 -7.11074 -34.98838 1073 ft 129 kts 134°
2026-04-17 22:51 -7.11721 -34.98194 903 ft 131 kts 134°
2026-04-17 22:52 -7.12373 -34.97544 727 ft 132 kts 134°
2026-04-17 22:52 -7.13029 -34.96892 541 ft 134 kts 134°
2026-04-17 22:52 -7.13703 -34.96224 378 ft 134 kts 134°
2026-04-17 22:52 -7.14365 -34.95563 236 ft 129 kts 134°
2026-04-17 22:53 -7.14912 -34.95013 218 ft 84 kts 135°
2026-04-17 22:53 -7.15219 -34.94700 218 ft 56 kts 137°
2026-04-17 22:53 -7.15375 -34.94551 218 ft 18 kts 135°
2026-04-17 22:53 -7.15471 -34.94455 218 ft 19 kts 136°
2026-04-17 22:54 -7.15568 -34.94368 218 ft 15 kts 142°
2026-04-17 22:54 -7.15660 -34.94325 218 ft 12 kts 137°
2026-04-17 22:54 -7.15626 -34.94311 218 ft 11 kts 313°
2026-04-17 22:54 -7.15569 -34.94370 218 ft 12 kts 314°
2026-04-17 22:55 -7.15505 -34.94435 218 ft 13 kts 315°
2026-04-17 22:55 -7.15434 -34.94503 218 ft 14 kts 316°
2026-04-17 22:55 -7.15355 -34.94578 218 ft 15 kts 317°
2026-04-17 22:55 -7.15273 -34.94657 218 ft 17 kts 315°
2026-04-17 22:56 -7.15186 -34.94745 218 ft 18 kts 315°
2026-04-17 22:56 -7.15093 -34.94836 218 ft 19 kts 316°
2026-04-17 22:56 -7.14996 -34.94931 218 ft 16 kts 316°
2026-04-17 22:56 -7.14910 -34.95016 218 ft 15 kts 315°
2026-04-17 22:57 -7.14840 -34.95082 218 ft 10 kts 331°
2026-04-17 22:57 -7.14779 -34.95060 218 ft 9 kts 43°
2026-04-17 22:57 -7.14737 -34.95019 218 ft 8 kts 44°
2026-04-17 22:57 -7.14686 -34.95010 218 ft 8 kts 323°
2026-04-17 22:58 -7.14639 -34.95053 218 ft 9 kts 322°
2026-04-17 22:58 -7.14590 -34.95054 218 ft 4 kts 35°
2026-04-17 22:58 -7.14581 -34.95036 218 ft 2 kts 112°
2026-04-17 22:58 -7.14594 -34.95022 218 ft 3 kts 133°
2026-04-17 22:59 -7.14606 -34.95009 218 ft 0 kts 134°